[[{"header":{"parameterUnit":"m.s-1","parameterCategory":1,"la1":30.2991,"la2":30.254,"lo1":-89.0895,"lo2":-89.0444,"dy":0.0017,"dx":0.0017,"nx":28,"ny":28,"refTime":"2023-09-18T21:00:00:Z","depth":0,"parameterNumber":2,"parameterNumberName":"U-component_of_WINDS"},"data":[0,0,0,0,0,0,0,0,0,0,0,0,0,0,0,0,0,0,0,0,0,0,0,0,0,0,0,0,0,0,0,0,0,0,0,0,0,0,0,0,0,0,0,0,0,0,0,0,0,0,0,0,0,0,0,0,0,0,-3.1578,-3.1578,0,-3.1577,-3.1577,-3.1577,-3.1454,-3.145,-3.1447,-3.1444,-3.1445,-3.1448,-3.1451,0,0,0,0,0,0,0,0,0,0,0,0,0,-3.1474,-3.1477,-3.1578,-3.1578,-3.1578,-3.1577,-3.1577,-3.1577,-3.1454,-3.145,-3.1446,-3.1443,-3.1444,-3.1448,-3.1452,0,0,0,0,0,0,0,0,0,0,0,0,0,-3.1501,-3.1478,-3.1578,-3.1516,-3.1511,-3.1577,-3.1577,-3.1577,-3.1455,-3.145,-3.1445,-3.1441,-3.1443,-3.1448,-3.1452,-3.1578,0,0,-3.1466,-3.1468,0,0,0,0,0,0,0,0,-3.15,-3.1505,-3.1525,-3.1521,-3.1515,-3.151,-3.1541,-3.1577,-3.1456,-3.1476,-3.1444,-3.1438,-3.1471,-3.1473,-3.1484,-3.1578,-3.1578,-3.1467,-3.1469,-3.1471,-3.1473,0,0,0,0,0,0,0,-3.1498,-3.1504,-3.1577,-3.1526,-3.1519,-3.1489,-3.1488,-3.1547,-3.1501,-3.1474,-3.1465,-3.1467,-3.1467,-3.148,-3.1483,-3.1578,-3.1466,-3.1471,-3.1473,-3.1475,-3.1775,-3.1779,0,0,0,0,0,0,-3.1504,-3.1504,-3.1577,-3.1577,-3.1495,-3.1495,-3.1493,-3.1517,-3.15,-3.1493,-3.1471,-3.1461,-3.1474,-3.1478,-3.1482,-3.1627,-3.1471,-3.1476,-3.1478,-3.1769,-3.1776,-3.1781,0,0,0,0,0,0,-3.1503,-3.1512,-3.1577,-3.1538,-3.1544,-3.1502,-3.1529,-3.1519,-3.1531,-3.1498,-3.1489,-3.1492,-3.147,-3.1476,-3.1555,-3.1625,-3.1478,-3.1482,-3.1763,-3.1771,-3.1779,-3.1918,0,0,0,0,0,0,-3.15,-3.1512,-3.1559,-3.154,-3.1547,-3.1649,-3.1534,-3.1523,-3.1539,-3.1526,-3.1515,-3.1508,-3.1467,-3.1549,-3.1559,-3.1629,-3.1485,-3.1757,-3.1767,-3.1776,-3.1907,-3.193,-3.195,0,0,0,0,0,-3.1497,-3.1599,-3.1562,-3.1571,-3.1604,-3.1654,-3.1657,-3.1607,-3.1546,-3.1592,-3.1571,-3.1509,-3.1617,-3.1558,-3.1569,-3.1641,-3.1752,-3.1764,-3.1775,-3.1898,-3.1926,-3.1949,0,0,0,0,0,0,-3.1627,-3.1595,-3.1554,-3.1653,-3.1657,-3.1633,-3.169,-3.1639,-3.1661,-3.1648,-3.1586,-3.1584,-3.1673,-3.1665,-3.16,-3.1761,-3.1673,-3.1688,-3.1763,-3.1789,-3.181,-3.1808,-3.1489,0,0,0,0,0,-3.1668,-3.171,-3.168,-3.177,-3.1774,-3.1733,-3.1752,-3.1713,-3.1715,-3.1717,-3.1701,-3.1706,-3.174,-3.1765,-3.1795,-3.1907,-3.1902,-3.1962,-3.1983,-3.2001,-3.2013,-3.2071,-3.2097,-3.182,-3.182,-3.1819,0,0,-3.1751,-3.1739,-3.1769,-3.1796,-3.1794,-3.184,-3.1734,-3.1787,-3.182,-3.1725,-3.1797,-3.1787,-3.1788,-3.1884,-3.1925,-3.188,-3.2089,-3.2016,-3.203,-3.2033,-3.2086,-3.2112,-3.2135,-3.1828,-3.1826,-3.1825,0,0,-3.1925,-3.1921,-3.1995,-3.1996,-3.1995,-3.1967,-3.1985,-3.1969,-3.1958,-3.203,-3.1959,-3.1999,-3.206,-3.2064,-3.2074,-3.2252,-3.2196,-3.2264,-3.2374,-3.2431,-3.2453,-3.2472,-3.2534,-3.2557,-3.2277,-3.2278,-3.2278,0,-3.2029,-3.2094,-3.204,-3.2097,-3.2111,-3.2027,-3.2101,-3.2105,-3.2115,-3.2126,-3.2076,-3.2152,-3.2147,-3.2242,-3.2285,-3.2297,-3.2315,-3.2264,-3.2454,-3.2472,-3.2489,-3.2548,-3.2572,-3.2286,-3.2285,-3.2284,-3.2283,0,-3.2221,-3.2267,-3.2327,-3.2338,-3.2359,-3.2425,-3.2381,-3.2409,-3.237,-3.2347,-3.2422,-3.2413,-3.244,-3.2461,-3.2423,-3.2551,-3.2522,-3.2465,-3.2374,-3.2525,-3.2579,-3.2601,-3.2298,-3.2295,-3.2292,-3.229,0,0,-3.2474,-3.2455,-3.2478,-3.2482,-3.2476,-3.2511,-3.2574,-3.26,-3.2624,-3.2635,-3.2685,-3.2741,-3.2687,-3.2698,-3.2661,-3.2711,-3.2851,-3.2646,-3.2645,-3.2683,-3.2991,-3.3033,-3.306,-3.2815,-3.2819,-3.2823,-3.299,0,-3.2642,-3.2746,-3.27,-3.2809,-3.2851,-3.2773,-3.2828,-3.2831,-3.2812,-3.2846,-3.2825,-3.2864,-3.2791,-3.2798,-3.2845,-3.2824,-3.2912,-3.2812,-3.2861,-3.2863,-3.286,-3.3088,-3.3132,-3.329,-3.3011,-3.3014,-3.3017,0,-3.285,-3.2868,-3.2982,-3.2968,-3.2984,-3.3034,-3.3054,-3.3088,-3.309,-3.3073,-3.3087,-3.3038,-3.3099,-3.3012,-3.3095,-3.3028,-3.3046,-3.304,-3.3045,-3.3045,-3.2947,-3.3093,-3.334,-3.3363,-3.305,-3.3047,-3.3045,0,-3.3021,-3.3075,-3.3149,-3.3155,-3.3142,-3.3179,-3.3175,-3.3172,-3.3191,-3.321,-3.3221,-3.3247,-3.3261,-3.3283,-3.3242,-3.3183,-3.3331,-3.3241,-3.3318,-3.3319,-3.335,-3.3349,-3.3602,-3.3367,-3.3367,-3.3366,-3.3366,0,-3.3211,-3.3283,-3.3226,-3.3271,-3.335,-3.3297,-3.3377,-3.3365,-3.3364,-3.3406,-3.3342,-3.3383,-3.3329,-3.3365,-3.3335,-3.3408,-3.3415,-3.3403,-3.3393,-3.3407,-3.3409,-3.3416,-3.3403,-3.3372,-3.3371,-3.337,-3.3369,0,-3.3413,-3.3378,-3.3454,-3.3436,-3.3433,-3.3492,-3.3476,-3.3518,-3.3496,-3.3551,-3.3561,-3.3526,-3.3566,-3.3528,-3.3567,-3.3546,-3.3643,-3.3619,-3.3642,-3.3634,-3.3713,-3.3706,-3.3978,-3.4011,-3.3757,-3.376,-3.3762,0,-3.3535,-3.3589,-3.3577,-3.36,-3.36,-3.3639,-3.3658,-3.3609,-3.3632,-3.3639,-3.368,-3.3714,-3.3739,-3.3806,-3.3785,-3.3814,-3.3788,-3.3882,-3.3792,-3.3804,-3.3787,-3.3784,-3.3788,-3.39,-3.3903,-3.3905,-3.3907,0,-3.3755,-3.3735,-3.3764,-3.3788,-3.3812,-3.3829,-3.384,-3.3863,-3.3813,-3.3842,-3.3881,-3.3901,-3.394,-3.3974,-3.3997,-3.3994,-3.3943,-3.3936,-3.3955,-3.3968,-3.3978,-3.3972,-3.3689,-3.3929,-3.3927,-3.3925,-3.3924,-3.3923,-3.3919,-3.3963,-3.3961,-3.3996,-3.4,-3.4012,-3.405,-3.4033,-3.4065,-3.4092,-3.4063,-3.4111,-3.4113,-3.4138,-3.4141,-3.4179,-3.4139,-3.4168,-3.4174,-3.4181,-3.4192,-3.3975,-3.4183,-3.4182,-3.4182,-3.4181,-3.4181,0,-3.4133,-3.4129,-3.4161,-3.4179,-3.4207,-3.4157,-3.4168,-3.4194,-3.4237,-3.4243,-3.4269,-3.4315,-3.4349,-3.4331,-3.4361,-3.4394,-3.4371,-3.4403,-3.4399,-3.4399,-3.4226,-3.4206,-3.4421,-3.4421,-3.4421,-3.4421,-3.4421,-3.4421,-3.4247,-3.4318,-3.4299,-3.4372,-3.4367,-3.4413,-3.4423,-3.4435,-3.4439,-3.4493,-3.4521,-3.4509,-3.4506,-3.4535,-3.4564,-3.4558,-3.4571,-3.4611,-3.4597,-3.4435,-3.4411,-3.4389,-3.4369,-3.4615,-3.4615,-3.4766,-3.4767,-3.4768]},{"header":{"parameterUnit":"m.s-1","parameterCategory":1,"la1":30.2991,"la2":30.254,"lo1":-89.0895,"lo2":-89.0444,"dy":0.0017,"dx":0.0017,"nx":28,"ny":28,"refTime":"2023-09-18T21:00:00:Z","depth":0,"parameterNumber":3,"parameterNumberName":"V-component_of_WINDS"},"data":[0,0,0,0,0,0,0,0,0,0,0,0,0,0,0,0,0,0,0,0,0,0,0,0,0,0,0,0,0,0,0,0,0,0,0,0,0,0,0,0,0,0,0,0,0,0,0,0,0,0,0,0,0,0,0,0,0,0,1.4884,1.4883,0,1.4813,1.4812,1.4811,1.4796,1.4796,1.4797,1.4797,1.4718,1.4715,1.4713,0,0,0,0,0,0,0,0,0,0,0,0,0,1.5,1.4998,1.4884,1.4883,1.4882,1.4813,1.4812,1.4811,1.4796,1.4796,1.4797,1.4797,1.4719,1.4716,1.4713,0,0,0,0,0,0,0,0,0,0,0,0,0,1.4942,1.4998,1.4884,1.4866,1.4864,1.4813,1.4812,1.4811,1.4795,1.4796,1.4797,1.4798,1.472,1.4716,1.4712,1.4673,0,0,1.47,1.4699,0,0,0,0,0,0,0,0,1.4945,1.4937,1.487,1.4867,1.4865,1.4814,1.4824,1.4764,1.4795,1.4821,1.4797,1.4798,1.4749,1.4743,1.4727,1.4669,1.4665,1.47,1.4698,1.4696,1.4695,0,0,0,0,0,0,0,1.4949,1.494,1.4856,1.4869,1.4866,1.486,1.4853,1.4813,1.4781,1.4819,1.4818,1.481,1.4748,1.4731,1.4725,1.4664,1.47,1.4697,1.4694,1.4693,1.4571,1.457,0,0,0,0,0,0,1.4957,1.4944,1.4858,1.4854,1.4908,1.4857,1.4849,1.4829,1.4782,1.4775,1.4809,1.4809,1.4738,1.473,1.4723,1.4673,1.4696,1.4692,1.469,1.4571,1.457,1.4569,0,0,0,0,0,0,1.496,1.495,1.4861,1.4898,1.4887,1.4855,1.4833,1.4828,1.4811,1.4775,1.4768,1.4799,1.4738,1.4728,1.4686,1.467,1.4691,1.4687,1.4573,1.4571,1.457,1.4574,0,0,0,0,0,0,1.4963,1.4951,1.4936,1.4898,1.4885,1.4826,1.4832,1.4826,1.4805,1.4805,1.4763,1.4757,1.4738,1.4692,1.4682,1.4665,1.4684,1.4574,1.4572,1.457,1.4575,1.4573,1.4571,0,0,0,0,0,1.4967,1.4938,1.4936,1.4925,1.4866,1.4826,1.4818,1.4798,1.4804,1.4789,1.4766,1.4758,1.4674,1.4688,1.4676,1.4658,1.4574,1.4572,1.457,1.4576,1.4574,1.4572,0,0,0,0,0,0,1.4972,1.4933,1.4929,1.4888,1.4861,1.4823,1.4803,1.4796,1.4765,1.4765,1.4741,1.4732,1.4691,1.467,1.4686,1.4618,1.4624,1.462,1.4633,1.463,1.4628,1.4633,1.4681,0,0,0,0,0,1.4969,1.4941,1.4908,1.4874,1.4861,1.4835,1.4816,1.4804,1.4774,1.4762,1.4735,1.4704,1.4671,1.465,1.4617,1.4573,1.4563,1.4555,1.4553,1.4552,1.4548,1.4523,1.4519,1.4563,1.4563,1.4563,0,0,1.4961,1.4936,1.492,1.4875,1.4852,1.4823,1.4825,1.4793,1.477,1.4756,1.4715,1.4695,1.4659,1.4616,1.4596,1.4598,1.4534,1.4549,1.4549,1.4545,1.4521,1.4517,1.4513,1.4561,1.4561,1.4562,0,0,1.4931,1.491,1.488,1.4859,1.4826,1.4809,1.4802,1.4766,1.4753,1.4712,1.4702,1.4673,1.4617,1.4592,1.4572,1.4536,1.4528,1.4526,1.4515,1.4492,1.4488,1.4485,1.4472,1.4467,1.4523,1.4523,1.4523,0,1.4924,1.4881,1.4865,1.4835,1.4815,1.4805,1.4773,1.4752,1.4709,1.4695,1.4699,1.463,1.4604,1.4556,1.4548,1.4532,1.4522,1.453,1.4491,1.4487,1.4484,1.4471,1.4466,1.4523,1.4523,1.4523,1.4523,0,1.4874,1.4845,1.4824,1.4787,1.4765,1.4734,1.4712,1.4692,1.4683,1.4665,1.4624,1.4594,1.4556,1.4544,1.4533,1.4494,1.4496,1.4496,1.4501,1.448,1.4467,1.4462,1.4523,1.4523,1.4523,1.4523,0,0,1.4842,1.4799,1.4792,1.4775,1.4739,1.4715,1.4684,1.4649,1.4632,1.4604,1.4576,1.453,1.453,1.4508,1.4494,1.4474,1.4448,1.4476,1.4475,1.4471,1.4402,1.4402,1.4397,1.4443,1.4442,1.4441,1.4405,0,1.4808,1.4754,1.474,1.4693,1.4666,1.4657,1.463,1.4604,1.4587,1.456,1.4541,1.4509,1.4511,1.4498,1.4478,1.4455,1.4433,1.4458,1.4415,1.4414,1.4423,1.439,1.4389,1.4356,1.44,1.4399,1.4398,0,1.4759,1.4733,1.4684,1.4654,1.4642,1.4618,1.4586,1.4561,1.4531,1.4521,1.4497,1.4487,1.4453,1.4463,1.4415,1.4432,1.4414,1.4401,1.4399,1.4393,1.4404,1.4382,1.4345,1.434,1.4391,1.4391,1.4392,0,1.474,1.4692,1.4658,1.4644,1.4607,1.4591,1.4575,1.4547,1.4528,1.4499,1.4486,1.4453,1.4435,1.4409,1.439,1.4398,1.4344,1.4352,1.4333,1.4333,1.432,1.432,1.4279,1.4311,1.4311,1.4311,1.4311,0,1.4701,1.4672,1.4649,1.4627,1.4594,1.4578,1.4545,1.4528,1.4504,1.4478,1.4468,1.4444,1.442,1.4392,1.4377,1.434,1.4332,1.4321,1.4317,1.4321,1.4322,1.4308,1.4309,1.431,1.431,1.431,1.431,0,1.4673,1.4657,1.4618,1.4589,1.4581,1.4558,1.4531,1.4509,1.4494,1.4461,1.4453,1.4427,1.4394,1.4373,1.433,1.432,1.4279,1.4276,1.429,1.4287,1.4269,1.4271,1.4215,1.4207,1.4246,1.4246,1.4245,0,1.4649,1.4626,1.4596,1.4579,1.4564,1.4536,1.4518,1.4502,1.4482,1.4449,1.4431,1.4398,1.437,1.4318,1.4294,1.4262,1.4257,1.424,1.4252,1.4257,1.4256,1.4257,1.4254,1.4237,1.4237,1.4237,1.4237,0,1.4607,1.4601,1.4575,1.4548,1.4526,1.4503,1.4479,1.4466,1.4445,1.4424,1.4392,1.4371,1.4329,1.4296,1.4262,1.4243,1.4236,1.4234,1.4227,1.423,1.4239,1.4233,1.4283,1.4234,1.4235,1.4235,1.4235,1.4235,1.4579,1.4559,1.4536,1.4508,1.4489,1.4468,1.4447,1.443,1.4404,1.437,1.4362,1.4328,1.43,1.4254,1.4236,1.4208,1.421,1.4201,1.4198,1.4196,1.4195,1.4245,1.4202,1.4202,1.4202,1.4202,1.4202,0,1.4536,1.4522,1.4496,1.4466,1.4444,1.4443,1.4417,1.4398,1.4369,1.4346,1.432,1.4283,1.4252,1.4228,1.4195,1.4177,1.4173,1.4169,1.4169,1.4165,1.4196,1.4204,1.4173,1.4173,1.4173,1.4173,1.4173,1.4173,1.4511,1.4478,1.447,1.4427,1.4412,1.438,1.4366,1.4346,1.4327,1.4288,1.4263,1.4248,1.4224,1.419,1.4161,1.4155,1.4143,1.4139,1.4132,1.416,1.4163,1.4166,1.4174,1.4137,1.4137,1.4103,1.4103,1.4103]}]]